Location: Launois
(49.6535°N, 4.5395°E)
Time: 01:51:12
(UTC+00:00)

Cosmos 1980 Rocket - Pass Details

Date: 23 May 2024
Orbit: 827 x 851 km, 71.0° (Epoch: 16 June)

Event Time Altitude Azimuth Distance (km) Brightness Sun altitude
Rises 01:04:17 0° 324° (NW) 3,428 5.8 -17.2°
Reaches altitude 10° 01:06:59 10° 315° (NW) 2,488 4.9 -17.0°
Maximum altitude 01:11:56 31° 255° (WSW) 1,447 3.1 -16.7°
Enters shadow 01:13:50 25° 221° (SW) 1,642 3.1 -16.6°
